TimeEST,TemperatureF,Dew PointF,Humidity,Sea Level PressureIn,VisibilityMPH,Wind Direction,Wind SpeedMPH,Gust SpeedMPH,PrecipitationIn,Events,Conditions,WindDirDegrees,DateUTC
12:15 AM,57.2,57.2,100,30.15,8.0,Calm,Calm,-,N/A,,Clear,0,2012-11-28 05:15:00
12:35 AM,55.4,55.4,100,30.15,9.0,Calm,Calm,-,N/A,,Clear,0,2012-11-28 05:35:00
12:55 AM,55.4,55.4,100,30.15,5.0,Calm,Calm,-,N/A,,Scattered Clouds,0,2012-11-28 05:55:00
1:15 AM,57.2,57.2,100,30.15,4.0,Calm,Calm,-,N/A,,Overcast,0,2012-11-28 06:15:00
1:35 AM,57.2,57.2,100,30.15,10.0,Calm,Calm,-,N/A,,Mostly Cloudy,0,2012-11-28 06:35:00
1:55 AM,55.4,55.4,100,30.15,10.0,Calm,Calm,-,N/A,,Clear,0,2012-11-28 06:55:00
2:15 AM,55.4,55.4,100,30.15,8.0,Calm,Calm,-,N/A,,Partly Cloudy,0,2012-11-28 07:15:00
2:35 AM,59.0,59.0,100,30.16,9.0,Calm,Calm,-,N/A,,Mostly Cloudy,0,2012-11-28 07:35:00
2:55 AM,57.2,57.2,100,30.15,7.0,Calm,Calm,-,N/A,,Mostly Cloudy,0,2012-11-28 07:55:00
3:15 AM,60.8,60.8,100,30.16,1.2,NW,3.5,-,N/A,,Mostly Cloudy,310,2012-11-28 08:15:00
3:35 AM,60.8,60.8,100,30.16,0.5,NNW,3.5,-,N/A,Fog,Fog,330,2012-11-28 08:35:00
3:55 AM,60.8,60.8,100,30.16,3.0,Calm,Calm,-,N/A,,Mostly Cloudy,0,2012-11-28 08:55:00
4:15 AM,57.2,57.2,100,30.15,0.8,Calm,Calm,-,N/A,,Mostly Cloudy,0,2012-11-28 09:15:00
4:35 AM,55.4,55.4,100,30.15,0.5,Calm,Calm,-,N/A,Fog,Fog,0,2012-11-28 09:35:00
4:55 AM,57.2,57.2,100,30.14,0.2,Calm,Calm,-,N/A,Fog,Fog,0,2012-11-28 09:55:00
5:15 AM,55.4,55.4,100,30.14,0.2,Calm,Calm,-,N/A,Fog,Fog,0,2012-11-28 10:15:00
5:35 AM,57.2,57.2,100,30.14,5.0,Calm,Calm,-,N/A,,Partly Cloudy,0,2012-11-28 10:35:00
5:55 AM,57.2,57.2,100,30.15,5.0,Calm,Calm,-,N/A,,Partly Cloudy,0,2012-11-28 10:55:00
6:15 AM,55.4,55.4,100,30.15,0.2,Calm,Calm,-,N/A,Fog,Fog,0,2012-11-28 11:15:00
2:35 PM,69.8,55.4,60,30.21,8.0,NNE,13.8,18.4,N/A,,Partly Cloudy,20,2012-11-28 19:35:00
2:55 PM,68.0,55.4,64,30.21,9.0,NNE,15.0,-,N/A,,Clear,20,2012-11-28 19:55:00
3:15 PM,66.2,55.4,68,30.21,9.0,NNE,12.7,-,N/A,,Clear,30,2012-11-28 20:15:00
3:35 PM,66.2,55.4,68,30.21,9.0,NNE,12.7,-,N/A,,Clear,30,2012-11-28 20:35:00
3:55 PM,64.4,55.4,73,30.22,9.0,NNE,12.7,-,N/A,,Clear,20,2012-11-28 20:55:00
4:15 PM,64.4,55.4,73,30.22,10.0,North,11.5,-,N/A,,Partly Cloudy,10,2012-11-28 21:15:00
4:35 PM,64.4,53.6,68,30.23,9.0,North,9.2,-,N/A,,Scattered Clouds,10,2012-11-28 21:35:00
4:55 PM,64.4,53.6,68,30.23,9.0,North,9.2,-,N/A,,Partly Cloudy,360,2012-11-28 21:55:00
5:15 PM,62.6,53.6,72,30.23,9.0,North,10.4,-,N/A,,Clear,10,2012-11-28 22:15:00
5:35 PM,62.6,53.6,72,30.24,8.0,North,8.1,-,N/A,,Clear,10,2012-11-28 22:35:00
5:55 PM,60.8,53.6,77,30.24,10.0,North,8.1,-,N/A,,Clear,10,2012-11-28 22:55:00
6:15 PM,60.8,53.6,77,30.24,8.0,North,10.4,-,N/A,,Clear,10,2012-11-28 23:15:00
6:35 PM,60.8,53.6,77,30.25,10.0,North,6.9,-,N/A,,Clear,360,2012-11-28 23:35:00
6:55 PM,60.8,53.6,77,30.25,10.0,North,6.9,-,N/A,,Clear,360,2012-11-28 23:55:00
7:15 PM,59.0,55.4,88,30.25,9.0,North,8.1,-,N/A,,Clear,10,2012-11-29 00:15:00
7:35 PM,59.0,55.4,88,30.26,8.0,North,9.2,-,N/A,,Clear,10,2012-11-29 00:35:00
7:55 PM,57.2,55.4,94,30.26,8.0,North,6.9,-,N/A,,Clear,360,2012-11-29 00:55:00
8:15 PM,57.2,55.4,94,30.27,8.0,North,8.1,-,N/A,,Clear,10,2012-11-29 01:15:00
8:35 PM,57.2,55.4,94,30.27,8.0,North,8.1,-,N/A,,Partly Cloudy,10,2012-11-29 01:35:00
8:55 PM,57.2,55.4,94,30.27,8.0,North,9.2,-,N/A,,Scattered Clouds,10,2012-11-29 01:55:00
9:15 PM,57.2,53.6,88,30.28,9.0,North,9.2,-,N/A,,Scattered Clouds,360,2012-11-29 02:15:00
9:35 PM,57.2,53.6,88,30.28,9.0,North,6.9,-,N/A,,Clear,360,2012-11-29 02:35:00
9:55 PM,57.2,53.6,88,30.29,8.0,North,5.8,-,N/A,,Clear,350,2012-11-29 02:55:00
10:15 PM,55.4,53.6,94,30.29,8.0,North,8.1,-,N/A,,Scattered Clouds,10,2012-11-29 03:15:00
10:35 PM,55.4,53.6,94,30.28,9.0,North,11.5,-,N/A,,Overcast,360,2012-11-29 03:35:00
10:55 PM,55.4,53.6,94,30.28,8.0,North,9.2,-,N/A,,Overcast,10,2012-11-29 03:55:00
11:15 PM,55.4,53.6,94,30.28,7.0,North,9.2,-,N/A,,Overcast,360,2012-11-29 04:15:00
11:35 PM,55.4,53.6,94,30.27,8.0,North,8.1,-,N/A,,Mostly Cloudy,10,2012-11-29 04:35:00
11:55 PM,55.4,53.6,94,30.27,7.0,North,9.2,-,N/A,,Mostly Cloudy,10,2012-11-29 04:55:00